Location: Cedar Ridge
(38.0658°N, 120.2769°W)
Time: 21:11:04
(UTC+00:00)

Cosmos 1726 Rocket - Pass Details

Date: 10 September 2024
Orbit: 599 x 624 km, 82.5° (Epoch: 12 October)

Event Time Altitude Azimuth Distance (km) Brightness Sun altitude
Rises 12:37:42 0° 192° (SSW) 2,835 6.7 -12.7°
Reaches altitude 10° 12:39:54 10° 195° (SSW) 1,939 5.8 -12.3°
Maximum altitude 12:44:10 67° 278° (W) 656 3.5 -11.4°
Drops below altitude 10° 12:48:29 10° 2° (N) 1,967 6.3 -10.6°
Sets 12:50:44 0° 5° (N) 2,880 7.2 -10.2°
